Site de l'académie de Versailles

Accueil > Historique du collège > Association sportive > Résultats du cross 2013

Résultats du cross 2013

samedi 23 novembre 2013 par M. Lémeri

Cross filles   1300      
           
NOM PRENOM PLACE TEMPS VITESSE DIVISION
DIAKITE Goundo 1 0:07’27 10.5 km/h 602
NGOMBA Audrey 2 0:07’36 10.3 km/h 603
VAUCHER Emma 3 0:08’05 9.6 km/h 602
RHEDDOU Rokaia 4 0:08’10 9.6 km/h 603
FURTADO SANCHES Stineida 5 0:08’17 9.4 km/h 604
GOUPANDE Gloria Rose 6 0:08’37 9.1 km/h 603
NDOMBA Guystanie 7 0:08’38 9 km/h 601
COUSIN Clara 8 0:09’02 8.6 km/h 601
A-SHARBUDDEN Sharbrina 9 0:09’16 8.4 km/h 604
DIALLO Aida 10 0:09’22 8.3 km/h 602
MACE Ileana 11 0:09’32 8.2 km/h 604
GHERSALLAH Kenza 12 0:09’38 8.1 km/h 603
VAZ DA SILVA Hélène 13 0:09’47 8 km/h 602
TAVERNIER Jade 14 0:09’49 7.9 km/h 602
AMANKWAAH Salina 15 0:09’58 7.8 km/h 603
DJAOUED Rachida 16 0:10’05 7.7 km/h 602
DEMBELE Elisa 17 0:10’12 7.6 km/h 601
CATTAVARAYEN Harini 18 0:10’18 7.6 km/h 603
FRANCIUS Thelma 19 0:10’25 7.5 km/h 604
ALAOUI Ghizlane 20 0:10’26 7.5 km/h 601
CHENIN Morgane 21 0:10’33 7.4 km/h 604
AMGHAR Feriel 22 0:10’35 7.4 km/h 602
VALENTE DIAS Carolina 23 0:10’37 7.3 km/h 605
BENTATA Imene 24 0:10’38 7.3 km/h 604
EDMORIN Marie Micheleine 25 0:10’38 7.3 km/h 601
MANGEANT Prudence 26 0:10’45 7.3 km/h 604
AMANKWAAH Victoria 27 0:10’49 7.2 km/h 604
LABORDE Laurie 28 0:11’08 7 km/h 602
DAHOUMANE Yasmine 29 0:11’12 7 km/h 602
COCU Ludivine 30 0:11’16 6.9 km/h 602
AIDARA Kani 31 0:11’25 6.8 km/h 604
FADIGA Coumba 32 0:11’26 6.8 km/h 605
LANCE-RICHARDOT Salome 33 0:12’06 6.4 km/h 602
PAMBOU Badouke 34 0:12’18 6.3 km/h 604
BOUICHE Camelia 35 0:12’19 6.3 km/h 603
GOBERT Camille 36 0:12’22 6.3 km/h 601
ROUXEL Justine 37 0:12’35 6.2 km/h 603
DOS ANJOS Andrea 38 0:12’49 6.1 km/h 605
EL-MINAOUI Ajar 39 0:12’58 6 km/h 605
KEZOUI Joanna 40 0:12’58 6 km/h 604
FERRATY Eva 41 0:15’00 5.2 km/h 601
DIASONAMA-MAKUNTIMA Nehemie 42 0:15’00 5.2 km/h 601
SIMONKA Perrine 43 0:15’00 5.2 km/h 603
RAMCHURN Ashley 44 0:15’00 5.2 km/h 602
GONCALVES MIRANDA Sara 45 0:15’00 5.2 km/h 601
FEUILLADE Léa 46 0:15’00 5.2 km/h 603
REBAHI Yasmine 47 0:15’00 5.2 km/h 601
Cross garcons 2000        
           
NOM PRENOM PLACE TEMPS VITESSE DIVISION
LAMOUR Arthur 1 0:10’13 11.7 km/h 604
CISSOKO Sory 2 0:10’19 11.6 km/h 603
GONCALVES Tony 3 0:10’49 11.1 km/h 604
BELRHARIB Ethan 4 0:10’50 11.1 km/h 603
ROUSSEAUX Léo 5 0:11’03 10.9 km/h 604
NGO Josselin 6 0:11’17 10.6 km/h 602
GULFARAZ Awais 7 0:11’31 10.4 km/h 605
JULAN Yohan 8 0:11’38 10.3 km/h 604
BOUARFA Walid 9 0:11’44 10.2 km/h 604
COLLIN Matéo 10 0:11’47 10.2 km/h 602
NIAKATE Aboubakary 11 0:11’55 10.1 km/h 603
BEAUCLAIR Clément 12 0:12’03 10 km/h 601
ALIANE Joris 13 0:12’10 9.9 km/h 604
TRINQUIER Florian 14 0:12’13 9.8 km/h 604
DAADAA Nabil 15 0:12’20 9.7 km/h 601
DIALLO Amadou 16 0:12’41 9.5 km/h 603
NZENGA TAYOU Melvyn 17 0:12’49 9.4 km/h 601
AMBA Jason 18 0:13’09 9.1 km/h 603
AMAIRI Messaoud 19 0:13’11 9.1 km/h 605
KARABERNOU Nabil 20 0:13’17 9 km/h 602
GOMY Kenn 21 0:13’19 9 km/h 603
AZNI Kousseila 22 0:13’23 9 km/h 601
EDWIN RUBAN Rayan 23 0:13’33 8.9 km/h 602
SAIDANI Yousri-Amine 24 0:13’33 8.9 km/h 603
AIT LARBI Rabah 25 0:13’37 8.8 km/h 601
GUILLOT Ilias 26 0:13’45 8.7 km/h 602
DOKHOLIAN David 27 0:13’46 8.7 km/h 604
MANDUAKILA-N’SAMBY Louis-Marco 28 0:13’55 8.6 km/h 604
AGUERSIF Ryan 29 0:14’00 8.6 km/h 602
BARRY Ibrahima 30 0:14’15 8.4 km/h 603
GOUJON Lilian 31 0:14’15 8.4 km/h 604
SALHI Yacine 32 0:14’43 8.2 km/h 602
BOUALAOUI Mohamed 33 0:15’19 7.8 km/h 601
KHALAF MOHSIN Mahmoud 34 0:15’19 7.8 km/h 605
MENGUETE Eddy 35 0:15’20 7.8 km/h 601
TEFAHI Abderrahmane 36 0:15’22 7.8 km/h 601
VIDAL Brayan 37 0:15’42 7.6 km/h 602
SEVERINA Gregory 38 0:15’56 7.5 km/h 605
TREINSOUTROT Axel 39 0:16’07 7.4 km/h 604
GASSAMA Bally 40 0:16’59 7.1 km/h 603
DEMANDE Théo 41 0:20’53 5.7 km/h 605
GAJANDIRAN Maxime 42 0:21’45 5.5 km/h 605
LOUICHET Mickael 43 0:24’00 5 km/h 605
GERMAIN Ilian 44 0:24’00 5 km/h 601

| Plan du site | Mentions légales | Suivre la vie du site RSS 2.0 | Haut de page | SPIP | ScolaSPIP
Collège Nicolas Flamel de Pontoise (95)
(académie de Versailles)
Directeur de publication : E. Aubray, Principale